STARLINK-30198, 57290

Orbit data source: Space-Track

STARLINK-30198, 57290 is a payload satellite owned by SpaceX/Seattle (US) in LEO that was launched on Mon, 10 Jul 2023 UTC via an FALCON 9 launch vehicle from the Air Force Eastern Test Range (AFETR). Payload-class satellites include a variety of spacecraft equipped with specific instruments for various scientific and technological missions. These include communications satellites like Starlink; space stations such as the ISS; scientific satellites like the Hubble; Earth observation satellites from companies like Planet Labs, Umbra, and HawkEye 360; GPS; miniature CubeSats for education and research; and military/defense satellites.

Loading next visibility...
Identifier
57290, 2023-096A
Orbit
LEO
Country
Flag of USUS
Related business
Manufacturer
SpaceX/Seattle
Mission
Operational Commercial Communications
Bus & Motor
STARLINK V2M, Unknown motor
Mass
730 kg wet, ~700 kg dry
Launch date (UTC)
2023-07-10 (2 years ago)
Launch vehicle
FALCON 9
Launch site
Air Force Eastern Test Range (AFETR)
Object type
Payload
Rocket body
Debris
Shape & HBR
Box + 2 Pan, 14.5 m
Radar Cross Section
33.884 m², Large (>1 m²)

Expand to show TLE details & history
Last TLE update: 1 day ago

TLE from 1 day ago
0 STARLINK-30198
1 57290U 23096A   25240.97505381  .00000223  00000-0  31565-4 0  9995
2 57290  43.0024 190.7069 0000794 259.9587 100.1166 15.02538519118627
Epoch: 2025-08-28T23:24Z
TLE epoch observation values (Epoch: 2025-08-28T23:24:04.649Z)
Latitude
0.00001°
Longitude
-137.74281°
Altitude
558.947 km
Speed
7.584 km/s
True Right ascension
12h 42m 49s
True Declination
0° 00' 00"
Sunlit
Object was in daylight at epoch
Visualization orbit readout
Latitude
Unknown
Longitude
Unknown
Altitude
Unknown
Speed
Unknown
Apparent Right ascension
Unknown
Apparent Declination
Unknown
Sunlit
N/A
Visualization observer readout
Local Sidereal Time
17:08:04
Azimuth
Unknown
Elevation
Unknown
Doppler factor
Unknown
Orbital elements
Apogee altitude
561.546 km
Perigee altitude
560.444 km
Semi-major axis
6,939.132 km
Eccentricity
0.00008
Inclination
43.0024°
RAAN
190.7069°
Arg. of periapsis
259.9587°
True anomaly
100.12556°
Mean anomaly
100.1166°
Eccentric anomaly
100.12108°
Mean motion
3.75479 °/min
Orbital period
95.88 mins
BSTAR
0.000031565
Loading maneuver chart data...
Computing Atmospheric mass density...
Loading historical data...
Loading historical data...
Loading historical data...
Loading historical data...
Loading historical data...
Loading historical data...
Loading historical data...

Documentation

Showing up to 5 results
|